Time,TemperatureF,DewpointF,PressureIn,WindDirection,WindDirectionDegrees,WindSpeedMPH,WindSpeedGustMPH,Humidity,HourlyPrecipIn,Conditions,Clouds,dailyrainin,SolarRadiationWatts/m^2,SoftwareType,DateUTC
2013-01-19 00:00:00,35.3,22.8,30.00,SSW,198,5.1,15.0,60,0.00,CLR,,0.00,0.0,WeatherDisplay:10.37,2013-01-19 05:00:00,
2013-01-19 00:01:00,35.3,22.8,30.00,SW,219,3.5,9.2,60,0.00,CLR,,0.00,0.0,WeatherDisplay:10.37,2013-01-19 05:01:00,
2013-01-19 00:02:00,35.3,22.8,30.00,SW,219,2.8,9.2,60,0.00,FEW,,0.00,0.0,WeatherDisplay:10.37,2013-01-19 05:02:00,
2013-01-19 00:07:00,35.2,23.1,30.00,SSW,206,9.2,10.5,61,0.00,FEW,,0.00,0.0,WeatherDisplay:10.37,2013-01-19 05:07:00,
2013-01-19 00:12:00,35.2,23.1,30.00,WSW,257,3.3,10.4,61,0.00,FEW,,0.00,0.0,WeatherDisplay:10.37,2013-01-19 05:12:00,
2013-01-19 00:17:00,35.2,23.1,29.99,SW,217,1.2,4.6,61,0.00,FEW,,0.00,0.0,WeatherDisplay:10.37,2013-01-19 05:17:00,
2013-01-19 00:22:00,35.2,23.1,29.99,SE,128,7.6,11.5,61,0.00,FEW,,0.00,0.0,WeatherDisplay:10.37,2013-01-19 05:22:00,
2013-01-19 00:27:00,35.3,23.2,29.99,WSW,244,11.8,16.1,61,0.00,FEW,,0.00,0.0,WeatherDisplay:10.37,2013-01-19 05:27:00,
2013-01-19 00:32:00,35.3,23.2,29.98,SW,220,2.3,15.0,61,0.00,FEW,,0.00,0.0,WeatherDisplay:10.37,2013-01-19 05:32:00,
2013-01-19 00:37:00,35.2,23.5,29.98,SW,236,3.5,8.1,62,0.00,FEW,,0.00,0.0,WeatherDisplay:10.37,2013-01-19 05:37:00,
2013-01-19 00:42:00,35.2,23.5,29.98,SW,222,4.3,9.2,62,0.00,FEW,,0.00,0.0,WeatherDisplay:10.37,2013-01-19 05:42:00,
2013-01-19 00:47:00,35.2,23.5,29.98,WSW,256,7.3,11.5,62,0.00,FEW,,0.00,0.0,WeatherDisplay:10.37,2013-01-19 05:47:00,
2013-01-19 00:52:00,35.2,23.5,29.98,West,265,3.9,10.4,62,0.00,FEW,,0.00,0.0,WeatherDisplay:10.37,2013-01-19 05:52:00,
2013-01-19 00:57:00,35.5,23.8,29.98,WSW,254,0.3,4.6,62,0.00,FEW,,0.00,0.0,WeatherDisplay:10.37,2013-01-19 05:57:00,
2013-01-19 01:02:00,35.5,23.8,29.97,SSW,210,13.5,18.4,62,0.00,FEW,,0.00,0.0,WeatherDisplay:10.37,2013-01-19 06:02:00,
2013-01-19 01:07:00,35.6,23.9,29.97,SW,226,5.4,10.4,62,0.00,FEW,,0.00,0.0,WeatherDisplay:10.37,2013-01-19 06:07:00,
2013-01-19 01:12:00,35.5,23.8,29.97,ESE,120,5.7,9.0,62,0.00,FEW,,0.00,0.0,WeatherDisplay:10.37,2013-01-19 06:12:00,
2013-01-19 01:17:00,35.5,24.1,29.97,SSW,195,13.3,15.0,63,0.00,FEW,,0.00,0.0,WeatherDisplay:10.37,2013-01-19 06:17:00,
2013-01-19 01:22:00,35.6,23.9,29.97,WSW,247,5.3,11.5,62,0.00,FEW,,0.00,0.0,WeatherDisplay:10.37,2013-01-19 06:22:00,
2013-01-19 01:27:00,35.5,23.8,29.97,WSW,241,0.6,4.6,62,0.00,FEW,,0.00,0.0,WeatherDisplay:10.37,2013-01-19 06:27:00,
2013-01-19 01:32:00,35.3,24.0,29.96,WSW,248,6.3,11.5,63,0.00,FEW,,0.00,0.0,WeatherDisplay:10.37,2013-01-19 06:32:00,
2013-01-19 01:37:00,35.5,24.1,29.96,SW,232,4.2,10.5,63,0.00,FEW,,0.00,0.0,WeatherDisplay:10.37,2013-01-19 06:37:00,
2013-01-19 01:42:00,35.6,24.2,29.96,SW,227,6.0,10.4,63,0.00,FEW,,0.00,0.0,WeatherDisplay:10.37,2013-01-19 06:42:00,
2013-01-19 01:47:00,35.6,24.2,29.96,West,271,3.8,11.5,63,0.00,FEW,,0.00,0.0,WeatherDisplay:10.37,2013-01-19 06:47:00,
2013-01-19 01:52:00,35.8,24.4,29.96,SW,224,6.4,8.1,63,0.00,FEW,,0.00,0.0,WeatherDisplay:10.37,2013-01-19 06:52:00,
2013-01-19 01:57:00,35.8,24.0,29.96,WSW,243,10.2,13.8,62,0.00,FEW,,0.00,0.0,WeatherDisplay:10.37,2013-01-19 06:57:00,
2013-01-19 02:02:00,35.8,24.0,29.96,SW,222,1.7,9.2,62,0.00,FEW,,0.00,0.0,WeatherDisplay:10.37,2013-01-19 07:02:00,
2013-01-19 02:07:00,35.8,24.4,29.96,South,171,3.3,10.4,63,0.00,FEW,,0.00,0.0,WeatherDisplay:10.37,2013-01-19 07:07:00,
2013-01-19 02:12:00,35.8,24.0,29.96,SSW,208,3.4,8.1,62,0.00,FEW,,0.00,0.0,WeatherDisplay:10.37,2013-01-19 07:12:00,
2013-01-19 02:17:00,35.9,24.1,29.96,West,260,1.7,19.6,62,0.00,FEW,,0.00,0.0,WeatherDisplay:10.37,2013-01-19 07:17:00,
2013-01-19 02:22:00,35.9,24.1,29.96,WSW,246,4.8,8.1,62,0.00,FEW,,0.00,0.0,WeatherDisplay:10.37,2013-01-19 07:22:00,
2013-01-19 02:27:00,35.9,24.1,29.96,South,176,4.4,10.4,62,0.00,FEW,,0.00,0.0,WeatherDisplay:10.37,2013-01-19 07:27:00,
2013-01-19 02:32:00,35.9,24.1,29.96,SSW,212,4.1,10.4,62,0.00,FEW,,0.00,0.0,WeatherDisplay:10.37,2013-01-19 07:32:00,
2013-01-19 02:37:00,36.2,24.4,29.96,WSW,258,9.4,16.1,62,0.00,FEW,,0.00,0.0,WeatherDisplay:10.37,2013-01-19 07:37:00,
2013-01-19 02:43:00,36.0,24.2,29.96,WSW,250,5.7,11.5,62,0.00,FEW,,0.00,0.0,WeatherDisplay:10.37,2013-01-19 07:43:00,
2013-01-19 02:48:00,36.0,24.2,29.96,WSW,243,6.3,11.5,62,0.00,FEW,,0.00,0.0,WeatherDisplay:10.37,2013-01-19 07:48:00,
2013-01-19 02:53:00,35.9,24.1,29.96,SW,236,4.2,10.4,62,0.00,FEW,,0.00,0.0,WeatherDisplay:10.37,2013-01-19 07:53:00,
2013-01-19 02:58:00,35.9,24.1,29.96,SSW,208,5.3,5.3,62,0.00,FEW,,0.00,0.0,WeatherDisplay:10.37,2013-01-19 07:58:00,
2013-01-19 03:03:00,35.9,24.5,29.95,West,278,5.9,12.0,63,0.00,FEW,,0.00,0.0,WeatherDisplay:10.37,2013-01-19 08:03:00,
2013-01-19 03:08:00,35.9,24.5,29.95,WSW,256,2.3,10.4,63,0.00,FEW,,0.00,0.0,WeatherDisplay:10.37,2013-01-19 08:08:00,
2013-01-19 03:13:00,35.9,24.5,29.95,WSW,254,0.4,9.0,63,0.00,FEW,,0.00,0.0,WeatherDisplay:10.37,2013-01-19 08:13:00,
2013-01-19 03:18:00,35.9,24.5,29.95,WSW,241,0.0,0.0,63,0.00,FEW,,0.00,0.0,WeatherDisplay:10.37,2013-01-19 08:18:00,
2013-01-19 03:23:00,35.8,24.4,29.95,West,267,3.5,8.1,63,0.00,FEW,,0.00,0.0,WeatherDisplay:10.37,2013-01-19 08:23:00,
2013-01-19 03:28:00,35.9,24.5,29.95,WSW,243,1.6,4.6,63,0.00,FEW,,0.00,0.0,WeatherDisplay:10.37,2013-01-19 08:28:00,
2013-01-19 03:33:00,35.9,24.5,29.95,WNW,285,2.0,9.2,63,0.00,FEW,,0.00,0.0,WeatherDisplay:10.37,2013-01-19 08:33:00,
2013-01-19 03:38:00,36.2,24.8,29.95,East,100,3.3,7.5,63,0.00,FEW,,0.00,0.0,WeatherDisplay:10.37,2013-01-19 08:38:00,
2013-01-19 03:43:00,36.2,24.8,29.95,WSW,240,2.6,15.0,63,0.00,FEW,,0.00,0.0,WeatherDisplay:10.37,2013-01-19 08:43:00,
2013-01-19 03:49:00,36.2,24.8,29.95,SW,222,0.0,0.0,63,0.00,FEW,,0.00,0.0,WeatherDisplay:10.37,2013-01-19 08:49:00,
2013-01-19 03:54:00,36.0,24.6,29.95,SSW,193,3.7,8.1,63,0.00,FEW,,0.00,0.0,WeatherDisplay:10.37,2013-01-19 08:54:00,
2013-01-19 03:59:00,36.0,24.6,29.95,South,179,0.1,4.6,63,0.00,FEW,,0.00,0.0,WeatherDisplay:10.37,2013-01-19 08:59:00,
2013-01-19 04:04:00,36.0,24.6,29.95,West,265,0.2,1.5,63,0.00,FEW,,0.00,0.0,WeatherDisplay:10.37,2013-01-19 09:04:00,
2013-01-19 04:09:00,36.0,24.6,29.95,SSW,202,5.1,9.0,63,0.00,FEW,,0.00,0.0,WeatherDisplay:10.37,2013-01-19 09:09:00,
2013-01-19 04:14:00,36.2,24.8,29.95,SSW,209,10.9,18.4,63,0.00,FEW,,0.00,0.0,WeatherDisplay:10.37,2013-01-19 09:14:00,
2013-01-19 04:19:00,36.3,24.9,29.95,WSW,241,1.0,3.5,63,0.00,FEW,,0.00,0.0,WeatherDisplay:10.37,2013-01-19 09:19:00,
2013-01-19 04:24:00,36.0,24.6,29.95,West,261,0.2,3.5,63,0.00,FEW,,0.00,0.0,WeatherDisplay:10.37,2013-01-19 09:24:00,
2013-01-19 04:29:00,36.0,25.0,29.95,SW,234,0.0,0.0,64,0.00,FEW,,0.00,0.0,WeatherDisplay:10.37,2013-01-19 09:29:00,
2013-01-19 04:34:00,35.9,24.9,29.95,SSW,205,7.2,8.1,64,0.00,FEW,,0.00,0.0,WeatherDisplay:10.37,2013-01-19 09:34:00,
2013-01-19 04:39:00,36.2,25.2,29.95,West,263,7.7,15.0,64,0.00,FEW,,0.00,0.0,WeatherDisplay:10.37,2013-01-19 09:39:00,
2013-01-19 04:44:00,36.2,25.2,29.95,SSE,157,7.9,15.0,64,0.00,FEW,,0.00,0.0,WeatherDisplay:10.37,2013-01-19 09:44:00,
2013-01-19 04:49:00,36.2,25.2,29.94,WSW,257,3.5,15.0,64,0.00,FEW,,0.00,0.0,WeatherDisplay:10.37,2013-01-19 09:49:00,
2013-01-19 04:54:00,36.0,25.0,29.94,NW,316,2.1,3.5,64,0.00,FEW,,0.00,0.0,WeatherDisplay:10.37,2013-01-19 09:54:00,
2013-01-19 04:59:00,35.9,24.9,29.94,SW,219,2.0,10.4,64,0.00,FEW,,0.00,0.0,WeatherDisplay:10.37,2013-01-19 09:59:00,
2013-01-19 05:04:00,35.9,24.9,29.94,SSW,199,4.0,9.0,64,0.00,CLR,,0.00,0.0,WeatherDisplay:10.37,2013-01-19 10:04:00,
2013-01-19 05:09:00,35.9,24.9,29.94,South,185,2.5,11.5,64,0.00,CLR,,0.00,0.0,WeatherDisplay:10.37,2013-01-19 10:09:00,
2013-01-19 05:14:00,35.9,24.9,29.94,SSW,206,4.2,10.5,64,0.00,CLR,,0.00,0.0,WeatherDisplay:10.37,2013-01-19 10:14:00,
2013-01-19 05:20:00,35.9,24.9,29.94,WSW,251,0.8,4.6,64,0.00,CLR,,0.00,0.0,WeatherDisplay:10.37,2013-01-19 10:20:00,
2013-01-19 05:25:00,35.9,25.3,29.94,SW,215,5.5,5.8,65,0.00,CLR,,0.00,0.0,WeatherDisplay:10.37,2013-01-19 10:25:00,
2013-01-19 05:30:00,35.9,25.3,29.94,WSW,254,3.8,6.0,65,0.00,CLR,,0.00,0.0,WeatherDisplay:10.37,2013-01-19 10:30:00,
2013-01-19 05:35:00,35.9,25.3,29.94,SW,216,3.4,8.1,65,0.00,CLR,,0.00,0.0,WeatherDisplay:10.37,2013-01-19 10:35:00,
2013-01-19 05:40:00,35.9,25.3,29.94,WNW,289,4.5,9.0,65,0.00,CLR,,0.00,0.0,WeatherDisplay:10.37,2013-01-19 10:40:00,
2013-01-19 05:45:00,35.9,25.3,29.94,SW,236,0.8,16.1,65,0.00,CLR,,0.00,0.0,WeatherDisplay:10.37,2013-01-19 10:45:00,
2013-01-19 05:50:00,35.9,25.3,29.94,West,261,1.8,3.5,65,0.00,CLR,,0.00,0.0,WeatherDisplay:10.37,2013-01-19 10:50:00,
2013-01-19 05:55:00,35.9,25.3,29.94,SW,230,7.1,12.0,65,0.00,CLR,,0.00,0.0,WeatherDisplay:10.37,2013-01-19 10:55:00,
2013-01-19 06:00:00,35.9,25.3,29.94,WSW,256,0.4,11.5,65,0.00,CLR,,0.00,0.0,WeatherDisplay:10.37,2013-01-19 11:00:00,
2013-01-19 06:05:00,35.8,25.5,29.95,SW,234,5.2,7.5,66,0.00,CLR,,0.00,0.0,WeatherDisplay:10.37,2013-01-19 11:05:00,
2013-01-19 06:10:00,35.8,25.5,29.95,WSW,253,6.8,10.5,66,0.00,CLR,,0.00,0.0,WeatherDisplay:10.37,2013-01-19 11:10:00,
2013-01-19 06:15:00,35.8,25.5,29.95,WSW,253,3.7,9.2,66,0.00,CLR,,0.00,0.0,WeatherDisplay:10.37,2013-01-19 11:15:00,
2013-01-19 07:47:00,35.9,26.0,29.95,West,267,3.3,24.2,67,0.00,FEW,,0.00,0.0,WeatherDisplay:10.37,2013-01-19 12:47:00,
2013-01-19 07:48:00,35.9,26.0,29.95,WSW,253,4.2,9.2,67,0.00,FEW,,0.00,0.0,WeatherDisplay:10.37,2013-01-19 12:48:00,
2013-01-19 07:49:00,35.9,26.0,29.95,SSW,202,3.6,9.2,67,0.00,FEW,,0.00,0.0,WeatherDisplay:10.37,2013-01-19 12:49:00,
2013-01-19 07:54:00,35.8,25.9,29.95,West,275,0.3,4.6,67,0.00,FEW,,0.00,5.0,WeatherDisplay:10.37,2013-01-19 12:54:00,
2013-01-19 07:59:00,35.6,26.1,29.95,WSW,248,2.1,4.5,68,0.00,FEW,,0.00,7.0,WeatherDisplay:10.37,2013-01-19 12:59:00,
2013-01-19 08:04:00,35.8,26.3,29.95,SW,219,7.3,10.4,68,0.00,SCT,,0.00,9.0,WeatherDisplay:10.37,2013-01-19 13:04:00,
2013-01-19 08:09:00,35.9,26.4,29.95,WSW,247,6.8,8.1,68,0.00,SCT,,0.00,14.0,WeatherDisplay:10.37,2013-01-19 13:09:00,
2013-01-19 08:14:00,36.0,26.1,29.95,SW,236,4.2,8.1,67,0.00,SCT,,0.00,18.0,WeatherDisplay:10.37,2013-01-19 13:14:00,
2013-01-19 08:19:00,36.3,26.4,29.95,SW,226,3.9,9.2,67,0.00,SCT,,0.00,28.0,WeatherDisplay:10.37,2013-01-19 13:19:00,
2013-01-19 08:24:00,36.5,26.6,29.95,West,265,1.7,4.6,67,0.00,SCT,,0.00,40.0,WeatherDisplay:10.37,2013-01-19 13:24:00,
2013-01-19 08:29:00,36.6,26.7,29.95,WSW,254,3.9,9.2,67,0.00,SCT,,0.00,53.0,WeatherDisplay:10.37,2013-01-19 13:29:00,
2013-01-19 08:34:00,36.9,26.6,29.95,SSW,209,11.0,19.6,66,0.00,SCT,,0.00,76.0,WeatherDisplay:10.37,2013-01-19 13:34:00,
2013-01-19 08:39:00,37.2,26.5,29.95,SW,236,1.8,4.5,65,0.00,SCT,,0.00,79.0,WeatherDisplay:10.37,2013-01-19 13:39:00,
2013-01-19 08:44:00,37.3,26.6,29.95,West,274,1.7,8.1,65,0.00,SCT,,0.00,91.0,WeatherDisplay:10.37,2013-01-19 13:44:00,
2013-01-19 08:49:00,37.6,26.9,29.95,SSW,212,2.2,8.1,65,0.00,SCT,,0.00,91.0,WeatherDisplay:10.37,2013-01-19 13:49:00,
2013-01-19 08:54:00,37.8,26.7,29.95,SW,215,2.5,11.5,64,0.00,SCT,,0.00,79.0,WeatherDisplay:10.37,2013-01-19 13:54:00,
2013-01-19 08:59:00,37.8,26.7,29.95,WSW,247,1.0,10.4,64,0.00,SCT,,0.00,62.0,WeatherDisplay:10.37,2013-01-19 13:59:00,
2013-01-19 09:04:00,37.8,26.7,29.95,WNW,291,5.0,9.0,64,0.00,BKN,,0.00,63.0,WeatherDisplay:10.37,2013-01-19 14:04:00,
2013-01-19 09:09:00,37.8,27.1,29.95,West,264,1.0,1.1,65,0.00,BKN,,0.00,62.0,WeatherDisplay:10.37,2013-01-19 14:09:00,
2013-01-19 09:14:00,37.9,26.8,29.95,West,274,1.5,3.5,64,0.00,BKN,,0.00,60.0,WeatherDisplay:10.37,2013-01-19 14:14:00,
2013-01-19 09:19:00,37.9,26.8,29.95,West,264,7.9,7.9,64,0.00,BKN,,0.00,53.0,WeatherDisplay:10.37,2013-01-19 14:19:00,
2013-01-19 09:24:00,37.8,26.7,29.95,SSW,193,3.8,8.1,64,0.00,BKN,,0.00,42.0,WeatherDisplay:10.37,2013-01-19 14:24:00,
2013-01-19 09:29:00,37.6,26.9,29.95,WSW,251,1.0,8.1,65,0.00,BKN,,0.00,32.0,WeatherDisplay:10.37,2013-01-19 14:29:00,
2013-01-19 09:34:00,37.6,26.9,29.96,West,280,7.2,9.0,65,0.00,BKN,,0.00,32.0,WeatherDisplay:10.37,2013-01-19 14:34:00,
2013-01-19 09:39:00,37.6,26.9,29.96,West,271,3.5,10.4,65,0.00,BKN,,0.00,33.0,WeatherDisplay:10.37,2013-01-19 14:39:00,
2013-01-19 09:44:00,37.8,27.1,29.96,WSW,248,1.6,3.5,65,0.00,BKN,,0.00,93.0,WeatherDisplay:10.37,2013-01-19 14:44:00,
2013-01-19 09:49:00,38.3,27.2,29.96,SSW,205,11.4,16.1,64,0.00,BKN,,0.00,213.0,WeatherDisplay:10.37,2013-01-19 14:49:00,
2013-01-19 09:54:00,39.2,27.7,29.96,West,263,7.5,10.4,63,0.00,BKN,,0.00,176.0,WeatherDisplay:10.37,2013-01-19 14:54:00,
2013-01-19 09:59:00,39.8,27.8,29.96,West,270,4.1,11.5,62,0.00,BKN,,0.00,201.0,WeatherDisplay:10.37,2013-01-19 14:59:00,
2013-01-19 10:04:00,40.1,27.3,29.96,WSW,247,3.4,5.8,60,0.00,BKN,,0.00,128.0,WeatherDisplay:10.37,2013-01-19 15:04:00,
2013-01-19 10:09:00,40.3,27.9,29.96,WNW,291,4.7,16.1,61,0.00,BKN,,0.00,95.0,WeatherDisplay:10.37,2013-01-19 15:09:00,
2013-01-19 10:14:00,40.3,27.5,29.96,WSW,240,3.3,9.2,60,0.00,BKN,,0.00,130.0,WeatherDisplay:10.37,2013-01-19 15:14:00,
2013-01-19 10:19:00,40.5,27.7,29.95,WNW,299,6.4,10.4,60,0.00,BKN,,0.00,118.0,WeatherDisplay:10.37,2013-01-19 15:19:00,
2013-01-19 10:24:00,40.5,27.7,29.95,West,260,1.4,4.6,60,0.00,BKN,,0.00,120.0,WeatherDisplay:10.37,2013-01-19 15:24:00,
2013-01-19 10:29:00,40.3,27.5,29.95,West,263,5.1,19.6,60,0.00,BKN,,0.00,109.0,WeatherDisplay:10.37,2013-01-19 15:29:00,
2013-01-19 10:34:00,40.5,27.7,29.95,West,277,12.0,12.0,60,0.00,BKN,,0.00,114.0,WeatherDisplay:10.37,2013-01-19 15:34:00,
2013-01-19 10:39:00,40.6,27.8,29.95,West,281,12.3,12.3,60,0.00,BKN,,0.00,127.0,WeatherDisplay:10.37,2013-01-19 15:39:00,
2013-01-19 10:44:00,41.1,28.3,29.95,West,265,7.8,15.0,60,0.00,BKN,,0.00,165.0,WeatherDisplay:10.37,2013-01-19 15:44:00,
2013-01-19 10:49:00,41.3,28.4,29.94,West,265,5.7,11.5,60,0.00,BKN,,0.00,130.0,WeatherDisplay:10.37,2013-01-19 15:49:00,
2013-01-19 10:54:00,42.1,28.8,29.94,West,274,11.9,15.0,59,0.00,BKN,,0.00,331.0,WeatherDisplay:10.37,2013-01-19 15:54:00,
2013-01-19 10:59:00,42.3,28.1,29.94,NW,325,7.0,11.5,57,0.00,BKN,,0.00,176.0,WeatherDisplay:10.37,2013-01-19 15:59:00,
2013-01-19 11:04:00,42.2,28.0,29.94,WSW,240,5.4,16.1,57,0.00,BKN,,0.00,201.0,WeatherDisplay:10.37,2013-01-19 16:04:00,
2013-01-19 11:09:00,42.2,28.5,29.94,West,264,4.0,8.1,58,0.00,BKN,,0.00,195.0,WeatherDisplay:10.37,2013-01-19 16:09:00,
2013-01-19 11:14:00,42.2,28.5,29.94,West,277,2.8,10.4,58,0.00,BKN,,0.00,195.0,WeatherDisplay:10.37,2013-01-19 16:14:00,
2013-01-19 11:19:00,42.3,28.6,29.93,SW,223,7.3,9.2,58,0.00,BKN,,0.00,216.0,WeatherDisplay:10.37,2013-01-19 16:19:00,
2013-01-19 11:24:00,42.8,28.6,29.93,West,267,7.8,9.2,57,0.00,BKN,,0.00,229.0,WeatherDisplay:10.37,2013-01-19 16:24:00,
2013-01-19 11:29:00,42.9,28.7,29.93,SW,222,7.2,15.0,57,0.00,BKN,,0.00,160.0,WeatherDisplay:10.37,2013-01-19 16:29:00,
2013-01-19 11:34:00,42.9,29.1,29.92,WNW,299,7.3,9.2,58,0.00,BKN,,0.00,185.0,WeatherDisplay:10.37,2013-01-19 16:34:00,
2013-01-19 11:39:00,43.2,29.0,29.92,NW,306,19.8,23.0,57,0.00,BKN,,0.00,220.0,WeatherDisplay:10.37,2013-01-19 16:39:00,
2013-01-19 11:44:00,43.9,30.1,29.92,West,270,1.7,9.2,58,0.00,BKN,,0.00,327.0,WeatherDisplay:10.37,2013-01-19 16:44:00,
2013-01-19 11:49:00,44.9,29.7,29.91,SSW,210,7.9,16.1,55,0.00,BKN,,0.00,276.0,WeatherDisplay:10.37,2013-01-19 16:49:00,
2013-01-19 11:54:00,44.5,28.9,29.91,West,268,10.7,19.6,54,0.00,BKN,,0.00,185.0,WeatherDisplay:10.37,2013-01-19 16:54:00,
2013-01-19 12:00:00,43.9,29.2,29.91,SW,216,14.9,20.7,56,0.00,BKN,,0.00,204.0,WeatherDisplay:10.37,2013-01-19 17:00:00,
2013-01-19 12:05:00,43.8,29.1,29.90,South,182,6.9,10.5,56,0.00,BKN,,0.00,255.0,WeatherDisplay:10.37,2013-01-19 17:05:00,
2013-01-19 12:10:00,43.9,29.2,29.90,SSW,212,8.0,18.0,56,0.00,BKN,,0.00,260.0,WeatherDisplay:10.37,2013-01-19 17:10:00,
2013-01-19 12:15:00,44.2,29.5,29.89,WSW,250,5.6,10.4,56,0.00,BKN,,0.00,266.0,WeatherDisplay:10.37,2013-01-19 17:15:00,
2013-01-19 12:20:00,44.5,29.3,29.89,WSW,257,9.3,15.0,55,0.00,BKN,,0.00,327.0,WeatherDisplay:10.37,2013-01-19 17:20:00,
2013-01-19 12:26:00,44.6,29.4,29.89,WSW,248,5.5,10.5,55,0.00,BKN,,0.00,329.0,WeatherDisplay:10.37,2013-01-19 17:26:00,
2013-01-19 12:31:00,46.0,30.7,29.86,SW,220,1.7,13.8,55,0.00,BKN,,0.00,644.0,WeatherDisplay:10.37,2013-01-19 17:31:00,
2013-01-19 12:36:00,46.5,30.3,29.86,WSW,251,10.8,10.8,53,0.00,BKN,,0.00,540.0,WeatherDisplay:10.37,2013-01-19 17:36:00,
2013-01-19 12:41:00,47.1,30.4,29.86,West,261,9.3,10.5,52,0.00,BKN,,0.00,282.0,WeatherDisplay:10.37,2013-01-19 17:41:00,
2013-01-19 12:46:00,46.8,30.1,29.85,West,280,5.8,11.5,52,0.00,BKN,,0.00,327.0,WeatherDisplay:10.37,2013-01-19 17:46:00,
2013-01-19 12:51:00,46.8,29.6,29.85,West,264,10.3,11.5,51,0.00,BKN,,0.00,282.0,WeatherDisplay:10.37,2013-01-19 17:51:00,
2013-01-19 12:56:00,46.2,29.5,29.85,SSW,203,7.2,10.4,52,0.00,BKN,,0.00,187.0,WeatherDisplay:10.37,2013-01-19 17:56:00,
2013-01-19 13:02:00,45.8,29.6,29.85,ENE,65,5.9,18.4,53,0.00,BKN,,0.00,197.0,WeatherDisplay:10.37,2013-01-19 18:02:00,
2013-01-19 13:07:00,45.7,29.5,29.85,WSW,257,2.6,11.5,53,0.00,BKN,,0.00,239.0,WeatherDisplay:10.37,2013-01-19 18:07:00,
2013-01-19 13:12:00,45.8,29.6,29.85,SSE,164,8.1,10.4,53,0.00,BKN,,0.00,227.0,WeatherDisplay:10.37,2013-01-19 18:12:00,
2013-01-19 13:18:00,45.7,29.5,29.83,SSW,196,7.0,10.4,53,0.00,BKN,,0.00,266.0,WeatherDisplay:10.37,2013-01-19 18:18:00,
2013-01-19 13:23:00,45.8,29.6,29.83,WSW,239,8.0,12.0,53,0.00,BKN,,0.00,201.0,WeatherDisplay:10.37,2013-01-19 18:23:00,
2013-01-19 13:28:00,45.8,29.6,29.83,WNW,282,4.9,15.0,53,0.00,BKN,,0.00,199.0,WeatherDisplay:10.37,2013-01-19 18:28:00,
2013-01-19 13:33:00,46.1,29.9,29.82,SSW,200,3.7,8.1,53,0.00,BKN,,0.00,162.0,WeatherDisplay:10.37,2013-01-19 18:33:00,
2013-01-19 13:38:00,46.1,29.9,29.82,South,172,8.8,16.1,53,0.00,BKN,,0.00,183.0,WeatherDisplay:10.37,2013-01-19 18:38:00,
2013-01-19 13:43:00,46.2,30.0,29.82,South,191,7.0,9.2,53,0.00,BKN,,0.00,202.0,WeatherDisplay:10.37,2013-01-19 18:43:00,
2013-01-19 13:48:00,46.1,29.9,29.81,WSW,248,7.3,11.5,53,0.00,BKN,,0.00,190.0,WeatherDisplay:10.37,2013-01-19 18:48:00,
2013-01-19 13:53:00,46.0,29.8,29.81,SSW,212,7.7,9.2,53,0.00,BKN,,0.00,194.0,WeatherDisplay:10.37,2013-01-19 18:53:00,
2013-01-19 13:58:00,46.0,30.3,29.81,SSW,213,8.5,11.5,54,0.00,BKN,,0.00,164.0,WeatherDisplay:10.37,2013-01-19 18:58:00,
2013-01-19 14:03:00,46.1,30.4,29.81,West,270,6.5,10.5,54,0.00,BKN,,0.00,158.0,WeatherDisplay:10.37,2013-01-19 19:03:00,
2013-01-19 14:08:00,46.1,30.4,29.81,WNW,294,8.4,12.0,54,0.00,BKN,,0.00,172.0,WeatherDisplay:10.37,2013-01-19 19:08:00,
2013-01-19 14:14:00,46.2,30.5,29.81,South,174,6.8,11.5,54,0.00,BKN,,0.00,264.0,WeatherDisplay:10.37,2013-01-19 19:14:00,
2013-01-19 14:19:00,46.5,30.3,29.80,West,263,6.9,7.5,53,0.00,BKN,,0.00,206.0,WeatherDisplay:10.37,2013-01-19 19:19:00,
2013-01-19 14:24:00,46.4,30.2,29.80,SSW,202,13.3,18.0,53,0.00,BKN,,0.00,238.0,WeatherDisplay:10.37,2013-01-19 19:24:00,
2013-01-19 14:29:00,46.5,30.3,29.80,East,99,4.2,9.2,53,0.00,BKN,,0.00,201.0,WeatherDisplay:10.37,2013-01-19 19:29:00,
2013-01-19 14:34:00,46.7,30.5,29.79,WSW,241,6.1,11.5,53,0.00,BKN,,0.00,206.0,WeatherDisplay:10.37,2013-01-19 19:34:00,
2013-01-19 14:40:00,46.7,30.9,29.79,WSW,254,3.4,12.0,54,0.00,BKN,,0.00,176.0,WeatherDisplay:10.37,2013-01-19 19:40:00,
2013-01-19 14:45:00,46.8,30.6,29.79,SW,229,9.6,9.6,53,0.00,BKN,,0.00,187.0,WeatherDisplay:10.37,2013-01-19 19:45:00,
2013-01-19 14:50:00,46.8,30.6,29.79,SW,227,10.7,16.5,53,0.00,BKN,,0.00,195.0,WeatherDisplay:10.37,2013-01-19 19:50:00,
2013-01-19 14:55:00,47.0,30.7,29.79,North,359,3.6,12.0,53,0.00,BKN,,0.00,187.0,WeatherDisplay:10.37,2013-01-19 19:55:00,
2013-01-19 15:00:00,47.1,30.8,29.78,South,186,6.2,16.1,53,0.00,BKN,,0.00,178.0,WeatherDisplay:10.37,2013-01-19 20:00:00,
2013-01-19 15:06:00,47.1,31.3,29.78,ESE,102,10.5,15.0,54,0.00,OVC,,0.00,183.0,WeatherDisplay:10.37,2013-01-19 20:06:00,
2013-01-19 15:11:00,47.3,31.0,29.78,WSW,254,16.9,27.0,53,0.00,OVC,,0.00,157.0,WeatherDisplay:10.37,2013-01-19 20:11:00,
2013-01-19 15:16:00,47.1,30.8,29.77,WSW,243,7.0,9.2,53,0.00,OVC,,0.00,146.0,WeatherDisplay:10.37,2013-01-19 20:16:00,
2013-01-19 15:21:00,47.1,31.3,29.77,WSW,237,7.2,8.1,54,0.00,OVC,,0.00,143.0,WeatherDisplay:10.37,2013-01-19 20:21:00,
2013-01-19 15:26:00,47.3,31.5,29.77,NNE,30,4.3,8.1,54,0.00,OVC,,0.00,146.0,WeatherDisplay:10.37,2013-01-19 20:26:00,
2013-01-19 15:31:00,47.3,31.5,29.76,WSW,237,4.3,8.1,54,0.00,OVC,,0.00,128.0,WeatherDisplay:10.37,2013-01-19 20:31:00,
2013-01-19 15:37:00,47.3,31.5,29.76,West,280,4.2,8.1,54,0.00,OVC,,0.00,141.0,WeatherDisplay:10.37,2013-01-19 20:37:00,
2013-01-19 15:42:00,47.3,31.5,29.76,SW,220,8.7,19.6,54,0.00,OVC,,0.00,135.0,WeatherDisplay:10.37,2013-01-19 20:42:00,
2013-01-19 15:47:00,47.3,31.5,29.75,West,274,5.4,12.0,54,0.00,OVC,,0.00,127.0,WeatherDisplay:10.37,2013-01-19 20:47:00,
2013-01-19 15:52:00,47.1,31.7,29.75,WNW,301,1.1,4.6,55,0.00,OVC,,0.00,91.0,WeatherDisplay:10.37,2013-01-19 20:52:00,
2013-01-19 15:58:00,47.1,31.7,29.75,SSW,209,4.5,10.5,55,0.00,OVC,,0.00,84.0,WeatherDisplay:10.37,2013-01-19 20:58:00,
2013-01-19 16:03:00,47.0,31.7,29.75,WSW,250,6.5,16.5,55,0.00,OVC,,0.00,74.0,WeatherDisplay:10.37,2013-01-19 21:03:00,
2013-01-19 16:08:00,46.8,31.9,29.75,SSW,209,9.2,9.2,56,0.00,OVC,,0.00,60.0,WeatherDisplay:10.37,2013-01-19 21:08:00,
2013-01-19 16:13:00,46.7,31.8,29.75,NNW,330,6.8,10.4,56,0.00,OVC,,0.00,51.0,WeatherDisplay:10.37,2013-01-19 21:13:00,
2013-01-19 16:18:00,46.7,31.8,29.74,SW,222,9.8,9.8,56,0.00,OVC,,0.00,44.0,WeatherDisplay:10.37,2013-01-19 21:18:00,
2013-01-19 16:23:00,46.7,31.8,29.74,SSW,198,6.5,9.2,56,0.00,OVC,,0.00,42.0,WeatherDisplay:10.37,2013-01-19 21:23:00,
2013-01-19 16:28:00,46.5,31.6,29.74,WSW,247,3.0,5.8,56,0.00,OVC,,0.00,44.0,WeatherDisplay:10.37,2013-01-19 21:28:00,
2013-01-19 16:34:00,46.7,31.8,29.74,South,188,13.3,18.4,56,0.00,OVC,,0.00,42.0,WeatherDisplay:10.37,2013-01-19 21:34:00,
2013-01-19 16:39:00,46.7,31.8,29.74,SW,229,6.5,10.5,56,0.00,OVC,,0.00,39.0,WeatherDisplay:10.37,2013-01-19 21:39:00,
2013-01-19 16:44:00,46.7,31.8,29.74,West,277,5.1,11.5,56,0.00,OVC,,0.00,33.0,WeatherDisplay:10.37,2013-01-19 21:44:00,
2013-01-19 16:49:00,46.5,32.1,29.74,West,267,8.4,11.5,57,0.00,OVC,,0.00,32.0,WeatherDisplay:10.37,2013-01-19 21:49:00,
2013-01-19 16:54:00,46.5,32.1,29.74,WNW,299,12.3,12.3,57,0.00,OVC,,0.00,28.0,WeatherDisplay:10.37,2013-01-19 21:54:00,
2013-01-19 16:59:00,46.5,32.1,29.74,SW,226,2.2,3.5,57,0.00,OVC,,0.00,23.0,WeatherDisplay:10.37,2013-01-19 21:59:00,
2013-01-19 17:04:00,46.5,32.1,29.75,WNW,285,5.3,9.2,57,0.00,BKN,,0.00,18.0,WeatherDisplay:10.37,2013-01-19 22:04:00,
2013-01-19 17:09:00,46.5,32.1,29.75,WSW,258,12.9,18.4,57,0.00,BKN,,0.00,14.0,WeatherDisplay:10.37,2013-01-19 22:09:00,
2013-01-19 17:14:00,46.4,32.0,29.75,SW,220,9.6,10.5,57,0.00,BKN,,0.00,9.0,WeatherDisplay:10.37,2013-01-19 22:14:00,
2013-01-19 17:19:00,46.4,32.4,29.75,WSW,239,6.9,20.7,58,0.00,BKN,,0.00,5.0,WeatherDisplay:10.37,2013-01-19 22:19:00,
2013-01-19 17:25:00,46.4,32.4,29.75,NW,306,12.0,12.0,58,0.00,BKN,,0.00,0.0,WeatherDisplay:10.37,2013-01-19 22:25:00,
2013-01-19 17:30:00,46.5,32.5,29.75,NNW,337,11.9,15.0,58,0.00,BKN,,0.00,0.0,WeatherDisplay:10.37,2013-01-19 22:30:00,
2013-01-19 17:35:00,46.4,32.4,29.75,West,272,5.5,12.0,58,0.00,BKN,,0.00,0.0,WeatherDisplay:10.37,2013-01-19 22:35:00,
2013-01-19 17:40:00,46.4,32.4,29.75,ESE,117,12.0,12.0,58,0.00,BKN,,0.00,0.0,WeatherDisplay:10.37,2013-01-19 22:40:00,
2013-01-19 17:45:00,46.2,32.2,29.75,West,270,12.6,18.4,58,0.00,BKN,,0.00,0.0,WeatherDisplay:10.37,2013-01-19 22:45:00,
2013-01-19 17:50:00,46.2,32.2,29.75,WSW,243,6.8,10.4,58,0.00,BKN,,0.00,0.0,WeatherDisplay:10.37,2013-01-19 22:50:00,
2013-01-19 17:56:00,46.1,32.1,29.75,SW,216,1.8,8.1,58,0.00,BKN,,0.00,0.0,WeatherDisplay:10.37,2013-01-19 22:56:00,
2013-01-19 18:01:00,46.0,32.5,29.74,West,265,6.9,9.2,59,0.00,OVC,,0.00,0.0,WeatherDisplay:10.37,2013-01-19 23:01:00,
2013-01-19 18:07:00,46.0,32.5,29.74,WSW,258,2.7,9.2,59,0.00,OVC,,0.00,0.0,WeatherDisplay:10.37,2013-01-19 23:07:00,
2013-01-19 18:12:00,46.0,32.5,29.74,West,268,1.1,4.6,59,0.00,OVC,,0.00,0.0,WeatherDisplay:10.37,2013-01-19 23:12:00,
2013-01-19 18:17:00,45.8,32.3,29.73,SSW,199,9.2,10.4,59,0.00,OVC,,0.00,0.0,WeatherDisplay:10.37,2013-01-19 23:17:00,
2013-01-19 18:22:00,45.8,32.3,29.73,West,260,7.2,15.0,59,0.00,OVC,,0.00,0.0,WeatherDisplay:10.37,2013-01-19 23:22:00,
2013-01-19 18:28:00,45.8,32.7,29.73,WNW,288,7.5,10.5,60,0.00,OVC,,0.00,0.0,WeatherDisplay:10.37,2013-01-19 23:28:00,
2013-01-19 18:33:00,45.7,32.6,29.72,SW,220,5.0,18.0,60,0.00,OVC,,0.00,0.0,WeatherDisplay:10.37,2013-01-19 23:33:00,
2013-01-19 18:38:00,45.8,32.7,29.72,SSW,203,3.9,10.4,60,0.00,OVC,,0.00,0.0,WeatherDisplay:10.37,2013-01-19 23:38:00,
2013-01-19 18:43:00,45.7,32.6,29.72,West,271,9.9,15.0,60,0.00,OVC,,0.00,0.0,WeatherDisplay:10.37,2013-01-19 23:43:00,
2013-01-19 18:49:00,45.7,32.6,29.69,SE,143,15.8,18.4,60,0.00,OVC,,0.00,0.0,WeatherDisplay:10.37,2013-01-19 23:49:00,
2013-01-19 18:54:00,45.7,32.6,29.69,SSW,198,7.4,10.4,60,0.00,OVC,,0.00,0.0,WeatherDisplay:10.37,2013-01-19 23:54:00,
2013-01-19 18:59:00,45.7,32.6,29.69,SSW,203,14.6,18.4,60,0.00,OVC,,0.00,0.0,WeatherDisplay:10.37,2013-01-19 23:59:00,
2013-01-19 19:04:00,46.0,32.9,29.71,WSW,250,12.2,18.4,60,0.00,BKN,,0.00,0.0,WeatherDisplay:10.37,2013-01-20 00:04:00,
2013-01-19 19:10:00,46.1,33.0,29.71,SSE,167,14.2,20.7,60,0.00,BKN,,0.00,0.0,WeatherDisplay:10.37,2013-01-20 00:10:00,
2013-01-19 19:15:00,46.0,32.9,29.71,WSW,247,11.9,16.1,60,0.00,BKN,,0.00,0.0,WeatherDisplay:10.37,2013-01-20 00:15:00,
2013-01-19 19:20:00,46.0,32.9,29.71,West,280,8.2,10.4,60,0.00,BKN,,0.00,0.0,WeatherDisplay:10.37,2013-01-20 00:20:00,
2013-01-19 19:25:00,46.0,32.9,29.71,SW,216,7.2,10.4,60,0.00,BKN,,0.00,0.0,WeatherDisplay:10.37,2013-01-20 00:25:00,
2013-01-19 19:30:00,45.8,32.7,29.71,SW,224,4.7,16.1,60,0.00,BKN,,0.00,0.0,WeatherDisplay:10.37,2013-01-20 00:30:00,
2013-01-19 19:35:00,45.7,33.0,29.71,WNW,284,9.8,11.5,61,0.00,BKN,,0.00,0.0,WeatherDisplay:10.37,2013-01-20 00:35:00,
2013-01-19 19:40:00,45.7,33.0,29.71,SW,222,9.8,27.0,61,0.00,BKN,,0.00,0.0,WeatherDisplay:10.37,2013-01-20 00:40:00,
2013-01-19 19:45:00,45.7,33.0,29.71,WSW,251,12.9,18.4,61,0.00,BKN,,0.00,0.0,WeatherDisplay:10.37,2013-01-20 00:45:00,
2013-01-19 19:50:00,45.5,32.8,29.70,West,267,3.7,10.4,61,0.00,BKN,,0.00,0.0,WeatherDisplay:10.37,2013-01-20 00:50:00,
2013-01-19 19:55:00,45.2,32.9,29.70,South,181,10.9,10.9,62,0.00,BKN,,0.00,0.0,WeatherDisplay:10.37,2013-01-20 00:55:00,
2013-01-19 20:00:00,45.3,33.1,29.70,West,262,7.0,25.0,62,0.00,BKN,,0.00,0.0,WeatherDisplay:10.37,2013-01-20 01:00:00,
2013-01-19 20:05:00,45.2,32.9,29.69,WNW,282,6.0,18.4,62,0.00,BKN,,0.00,0.0,WeatherDisplay:10.37,2013-01-20 01:05:00,
2013-01-19 20:10:00,45.1,33.2,29.69,West,272,5.9,10.5,63,0.00,BKN,,0.00,0.0,WeatherDisplay:10.37,2013-01-20 01:10:00,
2013-01-19 20:15:00,44.9,33.1,29.68,WNW,288,10.8,10.8,63,0.00,BKN,,0.00,0.0,WeatherDisplay:10.37,2013-01-20 01:15:00,
2013-01-19 20:21:00,44.8,33.0,29.68,WNW,284,2.4,10.4,63,0.00,BKN,,0.00,0.0,WeatherDisplay:10.37,2013-01-20 01:21:00,
2013-01-19 20:26:00,44.6,33.2,29.68,SW,224,12.0,15.0,64,0.00,BKN,,0.00,0.0,WeatherDisplay:10.37,2013-01-20 01:26:00,
2013-01-19 20:31:00,44.8,33.4,29.67,South,189,5.8,18.4,64,0.00,BKN,,0.00,0.0,WeatherDisplay:10.37,2013-01-20 01:31:00,
2013-01-19 20:36:00,44.6,33.2,29.67,WSW,243,9.9,18.4,64,0.00,BKN,,0.00,0.0,WeatherDisplay:10.37,2013-01-20 01:36:00,
2013-01-19 20:42:00,44.6,33.2,29.67,West,261,9.3,16.1,64,0.00,BKN,,0.00,0.0,WeatherDisplay:10.37,2013-01-20 01:42:00,
2013-01-19 20:47:00,44.6,33.2,29.65,SW,230,12.1,15.0,64,0.00,BKN,,0.00,0.0,WeatherDisplay:10.37,2013-01-20 01:47:00,
2013-01-19 20:52:00,44.5,33.1,29.65,SSW,206,13.5,19.6,64,0.00,BKN,,0.00,0.0,WeatherDisplay:10.37,2013-01-20 01:52:00,
2013-01-19 20:57:00,44.3,33.3,29.65,WNW,285,9.2,16.1,65,0.00,BKN,,0.00,0.0,WeatherDisplay:10.37,2013-01-20 01:57:00,
2013-01-19 21:02:00,44.2,33.2,29.65,SW,236,3.1,10.4,65,0.00,BKN,,0.00,0.0,WeatherDisplay:10.37,2013-01-20 02:02:00,
2013-01-19 21:07:00,44.1,33.1,29.65,SW,223,7.6,10.5,65,0.00,BKN,,0.00,0.0,WeatherDisplay:10.37,2013-01-20 02:07:00,
2013-01-19 21:12:00,44.2,33.2,29.65,West,275,8.4,16.1,65,0.00,BKN,,0.00,0.0,WeatherDisplay:10.37,2013-01-20 02:12:00,
2013-01-19 21:17:00,44.1,33.5,29.65,WSW,256,12.0,18.0,66,0.00,BKN,,0.00,0.0,WeatherDisplay:10.37,2013-01-20 02:17:00,
2013-01-19 21:22:00,43.9,33.3,29.65,WSW,241,7.4,9.2,66,0.00,BKN,,0.00,0.0,WeatherDisplay:10.37,2013-01-20 02:22:00,
2013-01-19 21:28:00,43.8,33.6,29.65,WSW,254,10.7,16.1,67,0.00,BKN,,0.00,0.0,WeatherDisplay:10.37,2013-01-20 02:28:00,
2013-01-19 21:33:00,43.6,33.4,29.64,SSW,193,11.7,15.0,67,0.00,BKN,,0.00,0.0,WeatherDisplay:10.37,2013-01-20 02:33:00,
2013-01-19 21:38:00,43.6,33.4,29.64,WNW,295,5.7,9.2,67,0.00,BKN,,0.00,0.0,WeatherDisplay:10.37,2013-01-20 02:38:00,
2013-01-19 21:43:00,43.5,33.3,29.64,SW,226,10.8,13.8,67,0.00,BKN,,0.00,0.0,WeatherDisplay:10.37,2013-01-20 02:43:00,
2013-01-19 21:49:00,43.3,33.1,29.63,SW,227,12.4,15.0,67,0.00,BKN,,0.00,0.0,WeatherDisplay:10.37,2013-01-20 02:49:00,
2013-01-19 21:54:00,43.2,33.3,29.63,WSW,258,11.4,11.5,68,0.00,BKN,,0.00,0.0,WeatherDisplay:10.37,2013-01-20 02:54:00,
2013-01-19 21:59:00,43.2,33.3,29.63,SE,140,7.3,10.4,68,0.00,BKN,,0.00,0.0,WeatherDisplay:10.37,2013-01-20 02:59:00,
2013-01-19 22:04:00,43.1,33.3,29.63,WSW,241,10.0,15.0,68,0.00,FEW,,0.00,0.0,WeatherDisplay:10.37,2013-01-20 03:04:00,
2013-01-19 22:09:00,43.1,33.6,29.63,WSW,254,6.7,10.4,69,0.00,FEW,,0.00,0.0,WeatherDisplay:10.37,2013-01-20 03:09:00,
2013-01-19 22:14:00,42.6,33.5,29.63,West,264,8.6,15.0,70,0.00,FEW,,0.00,0.0,WeatherDisplay:10.37,2013-01-20 03:14:00,
2013-01-19 22:19:00,42.6,33.5,29.62,SW,232,7.8,11.5,70,0.00,FEW,,0.00,0.0,WeatherDisplay:10.37,2013-01-20 03:19:00,
2013-01-19 22:24:00,42.5,33.4,29.62,SW,230,11.7,11.7,70,0.00,FEW,,0.00,0.0,WeatherDisplay:10.37,2013-01-20 03:24:00,
2013-01-19 22:30:00,42.3,33.6,29.62,WSW,251,9.3,10.4,71,0.00,FEW,,0.00,0.0,WeatherDisplay:10.37,2013-01-20 03:30:00,
2013-01-19 22:35:00,42.3,33.6,29.61,SSW,198,7.5,9.2,71,0.00,FEW,,0.00,0.0,WeatherDisplay:10.37,2013-01-20 03:35:00,
2013-01-19 22:40:00,42.2,33.5,29.61,West,275,1.6,3.5,71,0.00,FEW,,0.00,0.0,WeatherDisplay:10.37,2013-01-20 03:40:00,
2013-01-19 22:45:00,42.2,33.5,29.61,WSW,240,7.9,9.2,71,0.00,FEW,,0.00,0.0,WeatherDisplay:10.37,2013-01-20 03:45:00,
2013-01-19 22:50:00,42.2,33.5,29.61,SW,236,5.6,5.8,71,0.00,FEW,,0.00,0.0,WeatherDisplay:10.37,2013-01-20 03:50:00,
2013-01-19 22:55:00,42.1,33.7,29.61,West,265,9.9,11.5,72,0.00,FEW,,0.00,0.0,WeatherDisplay:10.37,2013-01-20 03:55:00,
2013-01-19 23:00:00,42.1,33.7,29.61,NW,312,4.0,6.0,72,0.00,FEW,,0.00,0.0,WeatherDisplay:10.37,2013-01-20 04:00:00,
2013-01-19 23:05:00,41.9,33.5,29.61,WSW,240,6.1,9.2,72,0.00,FEW,,0.00,0.0,WeatherDisplay:10.37,2013-01-20 04:05:00,
2013-01-19 23:10:00,41.9,33.5,29.61,West,268,3.6,9.2,72,0.00,FEW,,0.00,0.0,WeatherDisplay:10.37,2013-01-20 04:10:00,
2013-01-19 23:15:00,41.9,33.9,29.59,WSW,246,2.3,4.6,73,0.00,FEW,,0.00,0.0,WeatherDisplay:10.37,2013-01-20 04:15:00,
2013-01-19 23:20:00,41.6,33.6,29.59,West,270,2.2,3.5,73,0.00,FEW,,0.00,0.0,WeatherDisplay:10.37,2013-01-20 04:20:00,
2013-01-19 23:25:00,41.6,33.6,29.59,West,271,0.6,4.5,73,0.00,FEW,,0.00,0.0,WeatherDisplay:10.37,2013-01-20 04:25:00,
2013-01-19 23:30:00,41.6,33.6,29.59,West,272,6.9,9.2,73,0.00,FEW,,0.00,0.0,WeatherDisplay:10.37,2013-01-20 04:30:00,
2013-01-19 23:35:00,41.5,33.8,29.59,West,277,4.0,9.2,74,0.00,FEW,,0.00,0.0,WeatherDisplay:10.37,2013-01-20 04:35:00,
2013-01-19 23:41:00,41.6,33.6,29.59,WSW,244,8.6,10.5,73,0.00,FEW,,0.00,0.0,WeatherDisplay:10.37,2013-01-20 04:41:00,
2013-01-19 23:46:00,41.5,33.8,29.59,West,280,7.2,7.5,74,0.00,FEW,,0.00,0.0,WeatherDisplay:10.37,2013-01-20 04:46:00,
2013-01-19 23:51:00,41.3,33.6,29.59,West,265,0.3,4.6,74,0.00,FEW,,0.00,0.0,WeatherDisplay:10.37,2013-01-20 04:51:00,
2013-01-19 23:57:00,41.2,33.5,29.59,West,275,0.6,10.4,74,0.00,FEW,,0.00,0.0,WeatherDisplay:10.37,2013-01-20 04:57:00,